Petersburg, WV

2:18 PM EDT on May 23, 2017 (GMT -0400)
Petersburg

Weather History for KW99 - April, 2013

Change the Weather History Date:

Tuesday, April 23, 2013

  Actual Average (KEKN) Record (KEKN)
Temperature  
Mean Temperature 51 °F -  
Max Temperature 70 °F 66 °F 88 °F (2001)
Min Temperature 32 °F 38 °F 19 °F (1982)
Degree Days  
Heating Degree Days 14    
Growing Degree Days 1 (Base 50)    
Moisture  
Dew Point 38 °F    
Average Humidity 68    
Maximum Humidity 96    
Minimum Humidity 31    
Precipitation  
Precipitation 0.00 in - - ()
Sea Level Pressure  
Sea Level Pressure 30.21 in    
Wind  
Wind Speed 0 mph (North)    
Max Wind Speed 0 mph    
Max Gust Speed -    
Visibility 10 miles    
Events      
Averages and records for this station are not official NWS values.
T = Trace of Precipitation, MM = Missing Value Source: NWS Daily Summary

Daily Weather History Graph

Daily Weather History Graph

Search for Another Location

Airport or City:

Trip Planner

Search our weather history database for the weather conditions in past years. The results will help you decide how hot, cold, wet, or windy it might be!

Date:

Astronomy

Apr. 23, 2013 Rise Set
Actual Time 6:28 AM EDT 8:01 PM EDT
Civil Twilight 6:00 AM EDT 8:30 PM EDT
Nautical Twilight 5:26 AM EDT 9:04 PM EDT
Astronomical Twilight 4:50 AM EDT 9:40 PM EDT
Moon 5:55 PM EDT 4:54 AM EDT
Length of Visible Light 14h 29m
Length of Day
13h 33m
Waxing Gibbous, 94% of the Moon is Illuminated
Apr 23
Waxing Gibbous
Apr 25
Full
May 2
Last Quarter
May 9
New
May 18
First Quarter

Hourly Weather History & Observations

Time (EDT) Temp. Dew Point Humidity Pressure Visibility Wind Dir Wind Speed Gust Speed Precip Events Conditions
12:15 AM 39.4 °F 34.3 °F 82% 30.37 in 10.0 mi Calm Calm - N/A   Clear
12:35 AM 37.2 °F 32.9 °F 84% 30.36 in 10.0 mi Calm Calm - N/A   Clear
12:55 AM 37.6 °F 34.2 °F 87% 30.36 in 10.0 mi Calm Calm - N/A   Clear
1:15 AM 36.9 °F 33.4 °F 87% 30.36 in 10.0 mi Calm Calm - N/A   Clear
1:35 AM 35.8 °F 32.7 °F 89% 30.35 in 10.0 mi Calm Calm - N/A   Clear
1:55 AM 35.4 °F 32.0 °F 87% 30.35 in 10.0 mi Calm Calm - N/A   Clear
2:15 AM 34.3 °F 31.8 °F 90% 30.35 in 10.0 mi Calm Calm - N/A   Clear
2:35 AM 34.7 °F 32.2 °F 91% 30.34 in 10.0 mi Calm Calm - N/A   Clear
2:55 AM 34.5 °F 32.0 °F 90% 30.33 in 10.0 mi Calm Calm - N/A   Clear
3:15 AM 33.6 °F 31.8 °F 93% 30.33 in 10.0 mi Calm Calm - N/A   Clear
3:35 AM 34.0 °F 32.0 °F 92% 30.33 in 10.0 mi Calm Calm - N/A   Clear
3:55 AM 34.0 °F 32.0 °F 92% 30.33 in 10.0 mi Calm Calm - N/A   Clear
4:15 AM 33.8 °F 32.0 °F 93% 30.33 in 10.0 mi Calm Calm - N/A   Clear
4:35 AM 33.6 °F 32.0 °F 94% 30.33 in 10.0 mi Calm Calm - N/A   Clear
4:55 AM 33.8 °F 32.2 °F 94% 30.33 in 10.0 mi Calm Calm - N/A   Clear
5:15 AM 33.3 °F 32.0 °F 95% 30.33 in 10.0 mi Calm Calm - N/A   Clear
5:35 AM 33.6 °F 32.0 °F 94% 30.32 in 10.0 mi Calm Calm - N/A   Clear
5:55 AM 32.5 °F 31.6 °F 96% 30.32 in 10.0 mi Calm Calm - N/A   Clear
6:55 AM 32.5 °F 31.6 °F 96% 30.32 in 7.0 mi Calm Calm - N/A   Clear
7:15 AM 32.2 °F 31.1 °F 96% 30.32 in 7.0 mi Calm Calm - N/A   Clear
7:35 AM 32.4 °F 31.5 °F 96% 30.32 in 10.0 mi Calm Calm - N/A   Clear
7:55 AM 33.1 °F 32.0 °F 96% 30.32 in 10.0 mi Calm Calm - N/A   Clear
8:15 AM 35.4 °F 33.8 °F 94% 30.32 in 10.0 mi Calm Calm - N/A   Clear
8:35 AM 37.2 °F 34.7 °F 91% 30.32 in 10.0 mi Calm Calm - N/A   Clear
8:55 AM 39.4 °F 35.1 °F 84% 30.30 in 10.0 mi Calm Calm - N/A   Clear
9:15 AM 41.9 °F 36.3 °F 81% 30.29 in 10.0 mi Calm Calm - N/A   Clear
9:35 AM 43.7 °F 36.5 °F 76% 30.29 in 10.0 mi Calm Calm - N/A   Clear
9:55 AM 45.9 °F 37.2 °F 72% 30.28 in 10.0 mi Calm Calm - N/A   Clear
10:15 AM 47.8 °F 38.3 °F 70% 30.26 in 10.0 mi Calm Calm - N/A   Clear
10:35 AM 49.1 °F 37.9 °F 65% 30.26 in 10.0 mi Calm Calm - N/A   Clear
10:55 AM 51.3 °F 38.1 °F 61% 30.25 in 10.0 mi Calm Calm - N/A   Clear
11:15 AM 52.9 °F 38.5 °F 58% 30.25 in 10.0 mi Calm Calm - N/A   Clear
11:35 AM 54.5 °F 39.2 °F 56% 30.23 in 10.0 mi Calm Calm - N/A   Clear
11:55 AM 55.6 °F 39.6 °F 55% 30.23 in 10.0 mi Calm Calm - N/A   Clear
12:15 PM 56.8 °F 40.6 °F 55% 30.22 in 10.0 mi Calm Calm - N/A   Clear
12:35 PM 58.1 °F 40.5 °F 52% 30.21 in 10.0 mi Calm Calm - N/A   Clear
12:55 PM 59.7 °F 42.6 °F 53% 30.21 in 10.0 mi Calm Calm - N/A   Clear
1:15 PM 62.2 °F 43.0 °F 49% 30.19 in 10.0 mi Calm Calm - N/A   Clear
1:35 PM 61.9 °F 40.3 °F 45% 30.17 in 7.0 mi Calm Calm - N/A   Clear
1:55 PM 63.5 °F 42.1 °F 46% 30.17 in 10.0 mi Calm Calm - N/A   Clear
2:15 PM 64.4 °F 43.2 °F 46% 30.16 in 10.0 mi Calm Calm - N/A   Clear
2:35 PM 67.5 °F 42.3 °F 40% 30.15 in 10.0 mi Calm Calm - N/A   Clear
2:55 PM 67.1 °F 42.1 °F 40% 30.13 in 10.0 mi Calm Calm - N/A   Clear
3:15 PM 68.2 °F 40.8 °F 37% 30.12 in 10.0 mi Calm Calm - N/A   Clear
3:35 PM 68.2 °F 38.1 °F 33% 30.10 in 10.0 mi Calm Calm - N/A   Clear
3:55 PM 69.8 °F 38.1 °F 31% 30.09 in 10.0 mi Calm Calm - N/A   Clear
4:15 PM 69.6 °F 38.5 °F 32% 30.09 in 10.0 mi Calm Calm - N/A   Clear
4:35 PM 70.3 °F 39.6 °F 33% 30.08 in 10.0 mi Calm Calm - N/A   Clear
4:55 PM 70.5 °F 38.8 °F 32% 30.07 in 10.0 mi Calm Calm - N/A   Clear
5:15 PM 70.3 °F 38.8 °F 32% 30.07 in 10.0 mi Calm Calm - N/A   Clear
5:35 PM 70.3 °F 39.6 °F 33% 30.06 in 10.0 mi Calm Calm - N/A   Clear
5:55 PM 68.7 °F 40.5 °F 36% 30.06 in 10.0 mi Calm Calm - N/A   Clear
6:15 PM 68.5 °F 40.6 °F 36% 30.06 in 10.0 mi Calm Calm - N/A   Clear
6:35 PM 68.2 °F 42.4 °F 39% 30.06 in 10.0 mi Calm Calm - N/A   Clear
6:55 PM 67.1 °F 43.7 °F 43% 30.07 in 10.0 mi Calm Calm - N/A   Clear
7:15 PM 63.7 °F 45.5 °F 52% 30.07 in 10.0 mi Calm Calm - N/A   Clear
7:35 PM 63.7 °F 45.3 °F 51% 30.09 in 10.0 mi Calm Calm - N/A   Clear
7:55 PM 63.5 °F 44.8 °F 51% 30.08 in 10.0 mi Calm Calm - N/A   Clear
8:15 PM 60.3 °F 46.0 °F 59% 30.09 in 10.0 mi Calm Calm - N/A   Clear
8:35 PM 57.6 °F 45.9 °F 65% 30.09 in 10.0 mi Calm Calm - N/A   Clear
8:55 PM 54.9 °F 45.1 °F 70% 30.09 in 10.0 mi Calm Calm - N/A   Clear
9:15 PM 55.9 °F 44.4 °F 65% 30.10 in 10.0 mi Calm Calm - N/A   Clear
9:35 PM 55.6 °F 43.7 °F 64% 30.11 in 10.0 mi Calm Calm - N/A   Clear
9:55 PM 54.0 °F 43.5 °F 68% 30.10 in 10.0 mi Calm Calm - N/A   Clear
10:15 PM 54.9 °F 43.0 °F 64% 30.10 in 10.0 mi Calm Calm - N/A   Clear
10:35 PM 51.8 °F 43.7 °F 74% 30.09 in 10.0 mi Calm Calm - N/A   Clear
10:55 PM 50.2 °F 43.3 °F 77% 30.09 in 10.0 mi Calm Calm - N/A   Clear
11:15 PM 50.7 °F 43.7 °F 77% 30.09 in 10.0 mi Calm Calm - N/A   Clear
11:35 PM 47.1 °F 42.3 °F 83% 30.09 in 10.0 mi Calm Calm - N/A   Scattered Clouds
11:55 PM 45.5 °F 41.5 °F 86% 30.08 in 10.0 mi Calm Calm - N/A   Scattered Clouds